RH
30 32 38 36 42 32 33 35 38 31 24 25 28 28 28 24 19 19 18 16 13 12 33 33 36 41 47 60 64 68 71 69 72 70 79 80 79 77 78 76 76 80 81 86
40 36 31 28 28 32 35 39 38 33 28 29 28 25 18 16 17 19 17 15 16 13 10 17 34 37 43 55 63 67 69 70 70 62 63 67 69 72 72 74 74 76 78 80
53 37 30 31 39 36 34 35 37 34 28 34 28 26 21 16 20 19 16 16 18 16 13 10 16 35 38 46 58 63 67 68 70 61 61 73 77 92 82 78 73 75 76 77
50 35 38 45 46 42 45 28 28 30 39 50 39 57 33 22 17 17 19 18 20 18 15 11 11 15 34 38 47 56 62 65 70 65 63 66 78 76 72 71 71 69 74 75
42 43 42 47 40 34 40 36 32 33 36 49 49 52 38 26 22 22 21 18 21 19 18 16 15 13 13 32 39 49 57 63 66 69 64 66 66 66 63 68 75 74 77 73
46 38 44 43 37 32 31 34 35 36 49 62 46 48 43 31 23 22 17 19 23 22 20 18 16 20 18 19 33 41 52 60 64 69 67 68 64 62 68 73 78 79 76 80
59 45 39 39 48 36 40 60 77 65 65 53 36 42 34 27 23 31 37 35 33 30 30 29 26 28 27 25 33 39 47 58 61 69 70 69 65 62 64 70 76 76 79 83
89 58 53 42 42 44 48 66 90 96 84 81 58 46 44 42 39 36 34 33 28 29 28 28 31 31 36 38 49 41 48 57 60 68 71 68 68 64 64 67 69 72 74 75
91 79 48 41 36 43 50 64 55 86 91 96 76 50 40 43 42 36 34 33 32 30 29 29 30 37 36 42 50 68 56 57 60 65 70 70 71 69 70 74 82 79 76 74
78 88 57 41 37 40 60 52 82 85 93 76 57 69 67 54 47 44 38 34 34 32 31 30 31 33 32 33 37 53 63 71 76 76 77 74 75 73 73 81 82 86 88 85
66 80 62 57 45 48 71 70 73 76 94 91 82 75 42 46 48 51 46 37 39 37 36 34 34 34 33 32 32 39 48 66 70 80 85 83 82 85 86 88 86 82 83 78
61 65 90 65 36 37 65 68 66 91 87 87 84 77 41 42 44 41 44 44 38 39 41 40 39 37 38 38 36 37 38 48 52 78 80 86 87 88 92 92 92 94 93 92
61 73 76 38 51 56 72 60 55 60 83 87 98 68 34 50 47 44 47 48 45 42 41 39 39 41 40 39 39 39 42 41 46 52 61 79 85 85 82 79 87 87 89 92
61 73 62 60 49 75 71 59 53 60 93 89 78 65 55 63 63 55 47 44 43 42 41 43 43 42 40 40 41 42 43 44 46 46 50 61 71 78 84 85 86 86 85 85
63 84 81 75 64 59 60 56 49 55 57 81 52 53 65 64 63 54 45 44 42 41 39 39 41 42 40 42 43 43 44 43 44 46 49 53 53 58 64 70 76 83 87 89
63 77 68 74 52 52 60 56 54 52 53 56 53 55 63 55 55 48 48 48 46 45 44 43 42 39 40 38 41 42 44 46 48 48 51 51 52 54 58 64 73 75 74 80
67 75 82 82 64 63 73 55 63 64 71 78 92 81 64 64 61 53 55 55 52 50 48 46 43 41 42 42 44 47 46 45 47 49 50 51 52 54 55 52 56 73 71 84
70 75 78 90 73 76 45 69 65 71 65 70 71 72 70 70 65 57 56 58 57 56 52 49 46 47 46 45 48 46 43 43 49 47 50 55 54 54 54 60 61 64 64 80
62 74 93 94 95 65 66 74 81 81 77 64 75 74 74 72 61 61 58 56 58 63 62 58 53 52 47 46 48 46 47 46 46 47 49 51 54 54 54 57 64 65 72 70
64 70 87 95 99 98 71 62 51 64 90 53 67 75 77 76 88 80 59 62 63 62 64 64 64 53 50 49 48 51 53 52 52 54 56 53 53 53 57 59 60 70 77 72
88 90 93 92 96 85 75 52 47 91 76 62 69 76 80 86 76 67 66 65 64 66 64 61 58 59 55 53 55 59 59 60 58 59 60 60 58 60 58 61 64 65 70 71
73 91 96 92 98 94 50 53 60 63 57 67 67 70 70 71 74 69 70 70 68 67 64 59 61 62 61 61 62 64 63 59 58 60 62 61 61 59 54 63 65 65 72 75
74 66 82 78 77 64 54 58 53 55 70 64 67 55 68 72 72 73 75 74 74 71 68 64 69 71 68 64 63 68 66 63 65 66 66 65 63 60 60 67 70 74 76 81
61 64 78 67 60 54 53 50 46 54 58 55 53 61 70 74 75 78 76 81 81 77 77 74 75 74 71 66 63 64 62 60 64 66 67 68 72 73 70 70 73 76 78 82
70 62 65 63 55 55 51 52 53 55 55 56 63 69 70 73 78 84 88 86 85 85 80 77 77 71 69 68 68 60 59 60 65 67 69 70 69 72 77 76 77 77 73 76
69 66 79 74 60 60 57 53 56 60 55 53 68 71 82 85 90 90 91 85 76 74 73 74 76 73 72 69 66 62 60 62 71 78 79 79 80 79 73 75 80 78 80 80
Wind_Speed
6 9 5 3 1 4 5 6 9 12 12 14 17 24 23 16 17 14 8 7 11 13 14 17 17 19 19 19 18 20 18 18 15 13 13 12 13 10 10 10 13 13 12 13
8 6 2 3 4 3 4 7 8 8 11 13 12 24 21 21 21 18 18 15 9 9 15 14 17 18 19 20 23 20 22 19 19 15 14 11 11 9 9 9 11 13 14 14
2 3 4 4 7 5 4 5 5 13 12 7 10 22 14 15 15 11 13 13 7 9 11 17 15 18 20 22 23 23 24 23 20 22 13 7 6 2 7 10 12 13 15 15
2 4 4 5 4 4 4 8 9 8 7 3 4 13 15 15 19 18 10 13 12 10 7 6 11 12 19 24 24 25 25 25 23 21 17 21 17 16 15 15 12 12 16 16
6 6 7 4 7 7 8 7 9 11 8 5 4 8 6 9 15 10 10 12 10 11 8 10 10 12 15 19 22 22 23 25 23 22 21 18 19 16 12 10 14 15 13 17
7 5 1 2 6 6 10 5 6 7 4 9 6 8 6 3 8 7 12 13 14 14 17 16 12 9 10 16 22 23 24 25 24 24 25 24 24 19 12 14 13 12 12 11
7 6 5 6 7 6 8 4 4 5 3 10 6 8 6 11 10 10 8 10 13 14 15 16 15 14 13 11 18 22 23 23 23 24 25 24 24 21 20 18 14 15 12 10
4 6 7 11 3 5 7 3 4 4 5 6 9 6 4 8 13 18 16 14 18 19 18 20 19 16 15 15 12 19 20 21 20 22 24 23 23 14 12 10 9 11 12 13
4 5 6 3 11 2 6 3 2 3 3 4 5 8 8 19 21 22 21 19 19 20 21 20 20 20 21 21 16 9 9 14 15 18 15 18 16 17 15 10 6 6 8 7
1 5 2 7 6 6 4 4 1 3 3 4 5 5 11 20 18 20 19 18 16 17 20 21 21 23 22 21 20 19 10 6 2 6 7 9 9 10 9 6 9 8 6 7
2 1 6 4 3 2 5 5 5 3 0 3 4 3 9 11 7 10 15 11 8 14 15 19 20 21 22 23 24 22 18 14 7 1 3 7 7 7 6 4 6 11 8 12
2 1 4 6 8 5 1 3 5 3 5 3 4 4 10 12 11 12 14 15 15 14 15 16 19 21 21 22 22 23 22 20 14 10 1 3 3 3 5 2 4 2 13 10
0 2 4 5 4 4 3 2 3 6 2 4 1 5 14 14 14 12 14 15 15 16 17 19 20 19 19 20 20 21 22 22 21 15 11 10 7 1 2 4 5 10 10 6
6 4 6 6 3 0 6 9 8 3 2 4 9 10 11 12 14 12 13 11 12 14 16 17 18 17 17 17 19 20 19 19 20 20 17 14 9 6 5 4 3 4 4 5
3 3 2 6 6 6 11 14 13 11 12 6 15 13 6 10 8 7 9 11 13 14 17 16 16 16 18 19 17 15 17 18 17 18 16 15 15 13 8 7 6 6 4 4
1 3 2 6 9 8 10 12 13 14 14 11 16 12 3 7 7 8 10 10 13 15 16 16 15 15 16 16 16 18 16 16 16 16 14 14 14 13 14 13 10 7 6 5
3 2 2 5 2 5 5 6 5 6 4 3 2 2 7 10 8 7 8 10 12 12 13 14 13 11 11 11 10 13 14 13 11 11 12 12 14 15 14 13 10 9 8 5
5 4 2 3 4 3 5 1 3 6 3 2 2 3 6 7 7 3 5 4 6 10 14 13 13 13 10 9 9 13 14 13 12 13 11 9 11 11 12 11 12 13 10 8
9 5 1 3 2 8 3 3 1 1 4 2 2 3 4 6 6 6 1 4 4 3 6 10 11 9 12 14 13 13 12 12 13 12 14 13 12 14 11 12 11 11 9 10
9 2 4 2 3 5 3 1 4 4 6 2 3 4 4 5 3 6 7 4 5 6 7 7 7 13 12 14 14 16 16 14 12 13 15 14 15 16 15 12 12 7 6 9
5 2 7 4 5 8 3 2 5 4 4 8 2 4 4 3 6 6 6 6 7 8 7 7 11 10 12 15 16 16 14 15 16 16 15 15 15 16 15 14 12 12 11 10
6 6 5 4 5 9 2 4 2 5 7 5 6 4 7 8 6 4 6 8 9 9 9 10 9 10 12 12 13 17 18 15 16 18 20 19 17 14 13 14 13 13 12 11
4 6 5 9 7 3 4 5 6 6 6 6 5 12 7 5 4 6 6 6 7 8 9 10 11 13 11 11 11 15 16 19 20 20 19 19 19 17 15 15 15 12 10 10
4 3 4 2 3 5 5 6 5 4 5 9 11 8 3 6 6 5 5 5 6 6 9 10 12 13 15 14 15 16 16 17 18 20 20 19 18 19 17 12 11 11 11 10
5 2 4 9 11 10 12 7 6 7 6 11 6 3 5 6 6 5 5 5 6 7 10 11 12 13 15 16 17 18 19 19 19 19 18 18 16 18 17 14 13 12 14 12
8 8 6 8 6 6 8 6 7 6 10 12 6 3 3 4 5 6 7 7 9 11 12 12 14 15 17 18 18 17 18 18 19 19 16 15 15 15 15 15 16 17 21 21
Wind_Direction
5 63 52 327 164 233 274 290 294 302 286 281 279 280 295 300 295 297 287 262 262 271 247 234 221 209 198 191 192 197 196 197 181 187 190 193 200 195 199 200 202 200 203 200
22 46 238 287 319 304 295 304 304 276 326 304 281 279 285 286 286 278 282 279 248 242 265 261 230 214 203 198 198 193 199 196 197 193 197 202 192 206 202 201 205 201 200 201
107 260 323 336 308 298 272 247 273 285 303 301 278 277 278 278 277 279 273 273 262 249 240 246 240 222 207 203 198 198 198 197 199 203 186 180 177 125 193 206 209 203 198 202
281 288 333 337 288 268 287 226 258 279 317 324 354 290 307 297 291 292 284 284 286 293 330 270 262 244 219 213 204 203 199 196 198 194 193 191 193 196 206 206 202 203 200 204
291 306 352 10 319 319 254 276 266 278 287 293 278 283 328 347 312 305 296 296 296 299 305 308 240 233 250 231 213 207 205 199 197 191 196 197 202 209 205 199 199 200 198 205
268 276 218 210 313 265 289 314 275 253 216 265 246 237 288 289 254 268 290 329 332 332 333 322 303 273 253 244 222 213 206 204 196 194 195 198 205 207 196 198 196 200 202 198
329 314 325 60 332 335 7 14 342 340 341 276 265 239 271 303 330 14 23 355 345 357 354 355 337 341 331 279 226 215 208 208 200 199 196 200 206 206 205 197 198 194 196 196
15 336 4 341 7 273 305 75 135 302 301 296 297 267 43 8 14 16 360 2 7 358 358 0 354 352 353 327 277 215 206 208 201 200 207 202 207 201 208 215 213 212 201 206
11 272 336 305 329 303 315 23 261 211 240 271 267 304 329 2 14 13 4 1 5 5 10 1 359 7 8 6 347 333 233 207 206 209 209 215 207 207 195 191 191 213 233 218
14 286 307 303 3 356 71 301 331 359 315 314 299 44 3 355 8 5 0 358 4 21 14 17 20 19 16 14 12 15 9 26 166 180 199 209 210 218 247 151 207 186 185 190
22 138 299 323 38 299 350 19 350 314 275 305 295 89 8 347 358 19 334 333 4 13 13 10 16 14 13 10 13 18 12 13 2 357 198 187 176 166 153 179 185 195 175 207
301 175 290 274 275 253 168 58 41 7 331 282 268 258 38 21 0 356 358 358 4 19 11 20 16 20 12 14 13 10 9 11 10 356 316 90 88 163 172 209 298 359 231 222
354 318 343 354 18 25 47 30 4 310 245 251 249 269 19 357 340 345 16 31 21 13 19 18 18 11 6 8 11 11 8 7 5 6 16 27 30 133 163 161 164 223 231 221
182 187 193 206 235 291 294 300 303 252 237 271 255 303 357 346 345 8 11 18 28 23 23 27 17 9 8 7 8 1 3 7 1 7 6 10 4 4 354 9 7 358 350 353
98 211 233 266 281 271 269 280 282 251 242 231 277 290 329 320 333 359 355 11 20 16 25 21 23 8 3 4 359 7 357 0 0 3 358 0 356 348 349 7 6 8 8 348
12 271 342 287 253 257 269 274 270 258 257 253 258 277 334 302 327 8 351 8 16 14 14 13 16 15 5 354 353 350 358 1 354 354 345 349 353 354 352 343 345 337 335 339
187 205 134 271 316 311 333 245 262 267 54 289 80 14 322 329 332 6 6 14 7 1 359 0 356 354 353 344 346 337 339 346 342 336 342 352 352 345 344 337 337 313 308 282
177 181 155 262 347 10 238 119 76 84 94 42 85 336 306 308 301 63 21 7 355 344 345 344 340 341 342 335 331 332 339 338 335 331 332 338 337 331 328 328 327 326 320 299
183 158 210 129 248 292 231 120 2 123 244 236 250 270 262 296 310 294 25 313 309 295 297 313 322 327 334 331 325 332 333 332 330 324 322 330 328 317 317 318 309 302 304 312
169 100 126 187 220 239 225 297 283 156 244 161 211 264 283 311 323 266 286 311 271 286 302 303 305 325 327 330 338 330 328 330 325 319 318 323 314 307 301 299 297 283 282 287
138 184 216 233 256 279 193 41 300 188 265 329 275 268 278 239 227 268 313 305 304 305 300 315 327 332 328 330 330 324 323 321 317 314 310 299 297 290 295 296 296 297 298 300
172 160 196 189 237 258 163 64 141 255 316 286 295 282 277 270 278 287 295 301 306 310 332 331 325 322 323 325 321 316 315 316 311 308 303 302 302 298 292 284 285 291 288 286
236 193 193 188 214 183 168 176 226 254 232 278 280 297 279 284 269 290 286 297 311 326 324 327 327 320 317 315 312 306 307 315 313 307 298 298 302 298 297 292 293 289 281 278
267 176 228 5 229 243 210 236 234 256 255 284 278 267 266 270 277 277 288 307 311 315 318 323 319 317 319 320 320 309 309 309 305 302 302 303 300 297 295 290 282 278 268 265
201 185 203 262 277 282 280 264 258 289 307 309 279 265 293 314 321 327 324 321 318 315 322 321 317 319 320 321 317 318 317 319 313 306 304 301 298 295 294 288 283 277 275 265
181 217 190 240 217 211 255 256 261 259 286 282 256 277 61 22 333 326 323 325 326 324 321 320 319 321 323 323 318 319 319 313 309 304 300 294 291 287 284 284 282 260 261 262